Weather reports worldwide

Advertisment
Finisterre, Spain (8040): temperature & dewpoint: 10.07.2020 04:00:00 - 16.07.2020 04:00:00 (CEST)Finisterre, Spain (8040): wind speed & gusts: 10.07.2020 04:00:00 - 16.07.2020 04:00:00 (CEST)Finisterre, Spain (8040): wind direction: 10.07.2020 04:00:00 - 16.07.2020 04:00:00 (CEST)Finisterre, Spain (8040): reduced air pressure: 10.07.2020 04:00:00 - 16.07.2020 04:00:00 (CEST)Finisterre, Spain (8040): visibility: 10.07.2020 04:00:00 - 16.07.2020 04:00:00 (CEST)Finisterre, Spain (8040): sunshine duration: 10.07.2020 04:00:00 - 16.07.2020 04:00:00 (CEST)Finisterre, Spain (8040): precipitation: 10.07.2020 04:00:00 - 16.07.2020 04:00:00 (CEST)
Date & Time tt [°C] td [°C] ff [km/h] ff [kn] fx [km/h] fx [kn] dd ppp [hPa] vv [km] sd [min] rr [mm]
16.07.2020 04:00:00 - - - - - - - - - - -
16.07.2020 03:00:00 14,4 11,3 18 10 63 34 N 1019,5 20 0 0,0
16.07.2020 02:00:00 14,6 11,6 36 20 85 46 NE 1019,5 20 0 -
16.07.2020 01:00:00 14,8 11,6 46 25 80 43 NE 1018,8 20 0 0,0
16.07.2020 00:00:00 14,8 11,8 47 25 80 43 NE 1019,0 18 0 0,0
15.07.2020 23:00:00 14,9 11,9 46 25 75 41 NNE 1018,7 18 0 0,0
15.07.2020 22:00:00 15,9 11,9 40 21 67 36 NNE 1018,8 17 1 0,0
15.07.2020 21:00:00 17,4 12,1 37 20 63 34 NNE 1018,9 19 50 0,0
15.07.2020 20:00:00 18,4 12,4 32 18 62 33 NNE 1019,0 20 60 -
15.07.2020 19:00:00 18,3 12,7 29 16 59 32 NNE 1019,5 15 60 0,0
15.07.2020 18:00:00 18,1 12,7 39 21 59 32 NNE 1019,8 11 60 0,0
15.07.2020 17:00:00 19,1 12,8 34 18 54 29 NNE 1019,6 18 60 0,0
15.07.2020 16:00:00 19,6 13,1 31 17 47 25 NNE 1020,0 17 60 0,0
15.07.2020 15:00:00 20,0 13,3 24 13 42 23 NNE 1020,4 16 60 0,0
15.07.2020 14:00:00 19,2 13,0 25 14 53 29 NNE 1020,5 20 60 -
15.07.2020 13:00:00 19,4 13,2 29 16 58 32 NNE 1020,7 20 60 0,0
15.07.2020 12:00:00 19,1 13,1 26 14 59 32 NE 1020,9 20 60 0,0
15.07.2020 11:00:00 17,8 12,8 31 17 68 37 NE 1020,6 20 60 0,0
15.07.2020 10:00:00 16,8 12,5 35 19 69 37 NE 1020,4 16 56 0,0
15.07.2020 09:00:00 15,9 12,8 26 14 50 27 NE 1020,4 14 59 0,0
15.07.2020 08:00:00 15,2 12,5 27 14 58 32 NE 1020,3 20 6 -
15.07.2020 07:00:00 14,9 12,5 32 17 74 40 ENE 1020,0 20 0 0,0
15.07.2020 06:00:00 14,7 12,7 25 13 59 32 NE 1019,6 16 0 0,0
15.07.2020 05:00:00 14,8 13,1 25 13 57 31 NNE 1019,9 19 0 0,0
15.07.2020 04:00:00 14,7 13,6 28 15 55 30 NE 1020,0 15 0 0,0
15.07.2020 03:00:00 14,7 14,0 27 15 54 29 NE 1020,3 10 0 0,0
15.07.2020 02:00:00 15,1 14,4 31 17 51 27 NNE 1020,1 12 0 -
15.07.2020 01:00:00 15,2 14,5 33 18 56 31 NNE 1020,4 13 0 0,0
15.07.2020 00:00:00 15,4 14,6 35 19 54 29 NE 1020,3 14 0 0,0
14.07.2020 23:00:00 15,8 14,7 36 19 63 34 NE 1019,9 13 0 0,0
14.07.2020 22:00:00 16,1 14,4 34 18 61 33 NE 1019,5 19 0 0,0
14.07.2020 21:00:00 16,2 14,5 39 21 74 40 NNE 1019,4 15 24 0,0
14.07.2020 20:00:00 17,8 13,4 41 22 66 35 NNE 1019,2 20 59 -
14.07.2020 19:00:00 17,2 14,1 40 22 63 34 NNE 1019,3 20 60 0,0
14.07.2020 18:00:00 17,3 14,0 38 21 63 34 NNE 1019,5 16 59 0,0
14.07.2020 17:00:00 16,2 14,9 39 21 60 32 NNE 1020,0 7 59 0,0
14.07.2020 16:00:00 17,3 14,6 35 19 59 32 NNE 1020,3 17 60 0,0
14.07.2020 15:00:00 16,1 14,6 40 22 58 32 NNE 1020,7 7 52 0,0
14.07.2020 14:00:00 18,1 13,2 34 18 54 29 NNE 1021,0 20 60 -
14.07.2020 13:00:00 16,6 13,4 36 19 57 31 NNE 1021,1 19 60 0,0
14.07.2020 12:00:00 17,8 11,3 34 18 54 29 NNE 1021,0 16 60 0,0
14.07.2020 11:00:00 17,3 11,6 33 18 52 28 NNE 1021,4 19 60 0,0
14.07.2020 10:00:00 16,6 12,7 30 16 46 25 NNE 1021,6 15 56 0,0
14.07.2020 09:00:00 15,6 13,5 25 13 43 23 NE 1021,8 20 38 0,0
14.07.2020 08:00:00 14,8 13,6 25 14 41 22 NE 1021,8 15 3 -
14.07.2020 07:00:00 14,6 13,4 28 15 45 24 NE 1021,5 16 0 0,0
14.07.2020 06:00:00 14,7 13,3 27 15 55 30 NE 1021,8 17 0 0,0
14.07.2020 05:00:00 14,6 12,6 30 16 56 30 NE 1021,6 19 0 0,0
14.07.2020 04:00:00 15,0 12,5 35 19 67 36 NE 1021,8 19 0 0,0
14.07.2020 03:00:00 15,2 12,7 42 23 66 36 NE 1021,7 20 0 0,0
14.07.2020 02:00:00 15,5 12,8 45 25 69 37 NE 1022,0 18 0 -
14.07.2020 01:00:00 15,6 12,7 47 26 65 35 NNE 1021,8 20 0 0,0
14.07.2020 00:00:00 16,2 12,0 44 24 67 36 NE 1022,1 19 0 0,0
13.07.2020 23:00:00 16,1 11,9 46 25 66 36 NNE 1021,9 16 0 0,0
13.07.2020 22:00:00 16,8 11,9 33 18 62 33 NE 1021,8 20 2 0,0
13.07.2020 21:00:00 17,8 13,4 36 19 57 31 NNE 1021,4 19 48 0,0
13.07.2020 20:00:00 18,7 13,8 35 19 53 29 NNE 1021,1 16 60 -
13.07.2020 19:00:00 21,3 13,0 27 14 49 27 NNE 1020,8 14 60 0,0
13.07.2020 18:00:00 21,1 13,8 29 16 52 28 NNE 1021,1 20 60 0,0
13.07.2020 17:00:00 21,5 13,9 23 13 50 27 NNE 1021,2 20 60 0,0
13.07.2020 16:00:00 21,4 13,9 30 16 53 29 NNE 1021,4 13 60 0,0
13.07.2020 15:00:00 20,3 13,9 35 19 50 27 NNE 1021,6 12 60 0,0
13.07.2020 14:00:00 21,3 13,9 32 17 71 39 NNE 1021,4 13 60 -
13.07.2020 13:00:00 21,3 13,0 41 22 64 35 NNE 1020,9 20 60 0,0
13.07.2020 12:00:00 20,5 13,3 23 12 51 28 NNE 1021,3 17 60 0,0
13.07.2020 11:00:00 20,4 12,6 27 15 56 31 NE 1021,3 20 60 0,0
13.07.2020 10:00:00 18,6 12,3 29 15 57 31 ENE 1021,1 16 56 0,0
13.07.2020 09:00:00 16,8 12,5 39 21 69 37 NE 1020,9 16 60 0,0
13.07.2020 08:00:00 15,8 12,5 29 16 44 24 NE 1021,1 17 37 -
13.07.2020 07:00:00 15,2 12,5 26 14 55 30 NE 1020,4 17 0 0,0
13.07.2020 06:00:00 15,6 12,3 32 18 58 31 NE 1019,9 16 0 0,0
13.07.2020 05:00:00 15,5 12,4 32 17 62 33 NE 1019,7 19 0 0,0
13.07.2020 04:00:00 15,9 12,1 27 15 51 27 ENE 1019,6 20 0 0,0
13.07.2020 03:00:00 16,3 11,9 8 4 28 15 WNW 1019,9 17 0 0,0
13.07.2020 02:00:00 16,5 12,4 13 7 32 18 N 1020,1 18 0 -
13.07.2020 01:00:00 16,9 12,6 15 8 38 20 N 1020,1 16 0 0,0
13.07.2020 00:00:00 17,8 13,1 26 14 59 32 NNE 1019,9 16 0 0,0
12.07.2020 23:00:00 18,9 13,3 29 16 52 28 NE 1018,7 17 0 0,0
12.07.2020 22:00:00 19,8 13,8 30 16 54 29 NE 1018,1 18 2 0,0
12.07.2020 21:00:00 21,8 14,7 35 19 55 30 NE 1017,3 17 47 0,0
12.07.2020 20:00:00 24,1 15,3 21 11 38 21 NE 1016,8 16 60 -
12.07.2020 19:00:00 24,7 16,1 22 12 44 24 NE 1016,7 16 60 0,0
12.07.2020 18:00:00 26,0 17,1 25 14 43 23 NE 1016,6 16 60 0,0
12.07.2020 17:00:00 26,9 17,4 24 13 38 21 NE 1016,3 15 60 0,0
12.07.2020 16:00:00 25,9 16,7 24 13 32 18 NNE 1016,4 20 60 0,0
12.07.2020 15:00:00 25,5 17,5 18 10 25 13 NE 1016,2 13 60 0,0
12.07.2020 14:00:00 23,6 16,4 14 8 21 11 NNE 1016,4 17 60 -
12.07.2020 13:00:00 27,7 17,9 8 4 20 11 E 1015,6 14 60 0,0
12.07.2020 12:00:00 25,8 16,9 16 9 29 15 E 1015,5 17 60 0,0
12.07.2020 11:00:00 22,9 16,2 18 10 22 12 NNE 1015,1 18 60 0,0
12.07.2020 10:00:00 23,8 15,8 6 3 37 20 E 1015,1 17 56 0,0
12.07.2020 09:00:00 22,3 14,1 18 10 31 17 E 1014,3 16 60 0,0
12.07.2020 08:00:00 19,8 13,8 27 15 55 30 E 1014,2 18 13 -
12.07.2020 07:00:00 19,8 13,9 27 14 45 24 E 1013,7 19 0 0,0
12.07.2020 06:00:00 18,0 13,7 34 18 61 33 E 1013,8 20 0 0,0
12.07.2020 05:00:00 17,3 13,7 43 23 61 33 E 1013,3 18 0 0,0
12.07.2020 04:00:00 18,0 13,9 35 19 56 30 E 1013,0 17 0 0,0
12.07.2020 03:00:00 17,8 13,9 37 20 56 31 E 1013,3 17 0 0,0
12.07.2020 02:00:00 18,1 14,0 41 22 67 36 E 1013,3 20 0 -
12.07.2020 01:00:00 18,9 13,9 50 27 73 40 E 1012,9 20 0 0,0
12.07.2020 00:00:00 18,9 14,1 49 26 69 37 ENE 1013,0 18 0 0,0
11.07.2020 23:00:00 18,9 14,1 40 22 61 33 ENE 1012,9 19 0 0,0
11.07.2020 22:00:00 19,2 14,0 16 8 58 31 NNE 1013,2 16 0 0,0
11.07.2020 21:00:00 20,7 14,3 40 21 58 31 ENE 1012,5 20 47 0,0
11.07.2020 20:00:00 22,3 14,9 32 18 54 29 ENE 1012,7 16 60 -
11.07.2020 19:00:00 23,4 14,9 28 15 51 27 NE 1013,1 18 60 0,0
11.07.2020 18:00:00 22,4 14,5 26 14 48 26 NE 1013,7 13 60 0,0
11.07.2020 17:00:00 21,5 14,4 25 13 42 23 NNE 1014,0 13 60 0,0
11.07.2020 16:00:00 21,9 14,3 22 12 44 24 NNE 1014,1 10 60 0,0
11.07.2020 15:00:00 23,3 14,8 23 12 49 26 NE 1014,4 20 60 0,0
11.07.2020 14:00:00 22,8 14,9 26 14 55 30 NE 1014,8 20 60 -
11.07.2020 13:00:00 21,1 14,0 38 20 61 33 ENE 1014,9 9 60 0,0
11.07.2020 12:00:00 20,2 14,1 34 19 66 36 NE 1015,3 20 60 0,0
11.07.2020 11:00:00 19,0 13,7 34 18 61 33 NE 1015,8 17 60 0,0
11.07.2020 10:00:00 17,5 12,6 42 23 67 36 NE 1015,9 18 56 0,0
11.07.2020 09:00:00 16,4 12,3 30 16 76 41 NE 1016,4 15 60 0,0
11.07.2020 08:00:00 15,4 12,0 36 19 67 36 NE 1016,2 18 34 -
11.07.2020 07:00:00 14,8 12,1 32 18 69 37 NE 1016,7 20 0 0,0
11.07.2020 06:00:00 14,8 12,3 33 18 62 33 NE 1016,7 17 0 0,0
11.07.2020 05:00:00 14,8 12,3 37 20 66 35 NE 1016,8 15 0 0,0
11.07.2020 04:00:00 14,8 12,3 35 19 61 33 NE 1017,2 17 0 0,0
11.07.2020 03:00:00 14,8 12,3 31 17 58 31 NE 1017,8 17 0 0,0
11.07.2020 02:00:00 14,8 12,3 25 14 64 35 NNE 1018,5 18 0 -
11.07.2020 01:00:00 14,9 12,4 32 17 62 33 NNE 1018,6 14 0 0,0
11.07.2020 00:00:00 15,0 12,1 34 18 61 33 NE 1019,0 15 0 0,0
10.07.2020 23:00:00 15,2 12,0 37 20 61 33 NE 1018,8 17 0 0,0
10.07.2020 22:00:00 15,9 12,1 36 19 61 33 NE 1018,2 20 0 0,0
10.07.2020 21:00:00 17,1 12,2 38 21 59 32 NE 1018,0 16 45 0,0
10.07.2020 20:00:00 18,0 12,4 40 21 65 35 NE 1018,0 20 60 -
10.07.2020 19:00:00 18,7 13,4 26 14 49 26 NE 1017,9 13 60 0,0
10.07.2020 18:00:00 19,1 13,3 28 15 53 29 NNE 1018,1 12 60 0,0
10.07.2020 17:00:00 19,4 13,2 31 17 50 27 NNE 1018,2 20 60 0,0
10.07.2020 16:00:00 19,7 13,9 27 15 55 30 NE 1018,6 16 60 0,0
10.07.2020 15:00:00 19,5 13,7 24 13 55 30 NNE 1019,1 15 60 0,0
10.07.2020 14:00:00 18,7 13,2 29 16 57 31 NE 1019,6 18 58 -
10.07.2020 13:00:00 17,3 13,5 31 17 58 31 NE 1019,7 17 13 0,0
10.07.2020 12:00:00 16,1 13,8 28 15 55 30 NE 1020,1 14 0 0,0
10.07.2020 11:00:00 14,8 13,7 31 17 48 26 NE 1019,9 15 0 0,0
10.07.2020 10:00:00 15,0 13,9 26 14 44 24 NE 1020,1 15 0 0,0
10.07.2020 09:00:00 14,8 13,4 26 14 58 31 NNE 1019,8 15 0 0,0
10.07.2020 08:00:00 14,1 13,4 36 19 56 30 NNE 1019,3 17 0 -
10.07.2020 07:00:00 14,2 13,5 34 18 48 26 NE 1019,3 16 0 0,0
10.07.2020 06:00:00 14,5 13,3 29 15 48 26 NNE 1019,3 18 0 0,0
10.07.2020 05:00:00 14,4 13,0 28 15 45 25 NNE 1019,5 14 0 0,0
10.07.2020 04:00:00 14,2 13,1 26 14 43 23 NNE 1019,5 12 0 0,0

tt = temperature
td = dewpoint
ff = wind speed
fx = gusts
dd = wind direction
ppp = reduced air pressure
vv = visibility
sd = sunshine duration
rr = precipitation

Next stations